EST,Max TemperatureF,Mean TemperatureF,Min TemperatureF,Max Dew PointF,MeanDew PointF,Min DewpointF,Max Humidity, Mean Humidity, Min Humidity, Max Sea Level PressureIn, Mean Sea Level PressureIn, Min Sea Level PressureIn, Max VisibilityMiles, Mean VisibilityMiles, Min VisibilityMiles, Max Wind SpeedMPH, Mean Wind SpeedMPH, Max Gust SpeedMPH,PrecipitationIn, CloudCover, Events, WindDirDegrees
2012-12-1,63,49,35,45,40,35,100,80,48,30.41,30.38,30.35,10,8,5,10,1,,0.00,0,,98
2012-12-2,64,52,39,52,45,39,100,80,50,30.42,30.35,30.29,10,9,6,6,3,,0.00,1,,137
2012-12-3,68,60,53,59,56,53,100,90,70,30.32,30.29,30.25,10,8,2,9,4,,0.01,0,,229
2012-12-4,66,57,48,60,53,46,100,93,76,30.35,30.29,30.22,10,6,0,9,2,,0.00,2,Fog,211
2012-12-5,69,61,53,59,54,44,97,81,61,30.21,30.17,30.09,10,10,10,12,7,18,0.01,4,Rain,253
2012-12-6,54,51,48,44,41,38,86,71,55,30.28,30.23,30.19,10,10,10,16,11,24,0.00,7,,39
2012-12-7,64,56,48,63,56,44,100,91,78,30.17,30.08,29.99,10,9,6,12,7,18,0.14,7,Rain,91
2012-12-8,64,60,55,63,60,56,100,97,84,30.09,30.01,29.95,10,5,0,12,5,,0.08,5,Fog-Rain,238
2012-12-9,71,61,51,63,56,52,100,88,59,30.19,30.12,30.04,10,7,0,8,2,,0.01,3,Fog,126
2012-12-10,68,64,60,65,63,60,100,97,90,30.01,29.87,29.81,10,4,0,20,10,25,0.14,7,Fog-Rain,213
2012-12-11,69,62,53,67,61,51,100,94,78,30.10,29.91,29.79,10,7,2,18,11,25,0.11,6,Rain,223
2012-12-12,54,50,46,52,48,45,94,90,82,30.25,30.17,30.10,10,9,4,23,13,31,0.33,8,Rain,28
2012-12-13,53,50,46,48,46,42,93,89,80,30.29,30.21,30.12,10,9,4,23,17,33,0.61,7,Rain,11
2012-12-14,57,47,37,46,42,37,100,84,53,30.34,30.28,30.24,10,10,5,12,8,,0.00,0,,26
2012-12-15,60,52,44,54,46,42,96,81,62,30.26,30.19,30.10,10,10,10,8,5,,0.00,2,,44
2012-12-16,62,60,57,63,60,55,100,96,86,30.10,30.04,29.91,10,7,0,13,6,48,0.19,7,Fog-Rain,229
2012-12-17,63,60,57,63,60,57,100,95,86,29.90,29.83,29.67,10,7,1,14,8,22,0.40,7,Rain,237
2012-12-18,63,56,48,57,52,38,90,79,61,29.92,29.75,29.67,10,10,10,16,11,24,0.00,2,,258
2012-12-19,48,46,44,40,37,36,77,70,63,30.01,29.97,29.91,10,10,10,9,8,,0.00,0,,271
2012-12-20,66,64,61,60,56,53,84,73,64,30.06,29.90,29.62,10,9,1,21,10,32,0.02,2,Rain,146
2012-12-21,64,55,46,64,48,30,100,75,48,29.66,29.56,29.48,10,8,2,29,22,41,0.28,5,Rain,244
2012-12-22,,,,,,,,,,,,,,,,,,,,,,
2012-12-23,53,42,30,44,31,20,82,56,32,30.19,30.11,30.06,10,10,10,12,5,,0.00,0,,257
2012-12-24,61,54,48,50,43,36,96,67,51,30.09,30.02,29.94,10,10,10,12,7,,0.02,2,Rain,235
2012-12-25,59,54,48,49,47,45,93,82,69,30.12,30.06,29.96,10,10,10,12,7,,0.00,5,,21
2012-12-26,66,58,50,64,56,44,100,91,69,30.06,29.71,29.47,10,5,1,39,12,53,1.44,7,Rain,164
2012-12-27,51,46,42,38,35,31,76,66,54,30.05,29.87,29.63,10,10,10,20,15,29,0.00,1,,292
2012-12-28,48,42,36,36,33,30,82,71,56,30.19,30.10,30.03,10,10,10,9,5,,0.00,1,,17
2012-12-29,57,51,45,55,47,36,100,89,71,29.99,29.72,29.59,10,7,1,24,9,30,1.24,6,Rain,346
2012-12-30,46,42,37,34,27,24,71,58,41,30.40,30.22,29.91,10,10,10,21,15,25,0.00,0,,305
2012-12-31,54,44,34,48,34,25,83,66,48,30.40,30.31,30.15,10,10,10,15,8,20,0.00,1,,263